www.pogodaiklimat.ru

Погода и климат >> Архив погоды >> Казахстан >> Карабалык


ПОГОДА в Карабалыке

  • Прогноз погоды в Карабалыке
  • Монитор погоды в Карабалыке

АРХИВ ПОГОДЫ в Карабалыке

Время (UTC), дата Ветер
(напр.,м/с)
 
Видим.   Явления Облачность Т
(С)
Тd
(С)
f
(%)
Тe
(С)
Тes
(С)
Комфортность P
(гПа)
Po
(гПа)
Тmin
(С)
Tmax
(С)
R
(мм)
R24
(мм)
S
(см)
21 16.09 ЮЗ 4 н/о 9/0 2000 м
[Ac As]
+11.4 +4.3 62 +9 +9 1008.2 987.4
00 17.09 ЮЗ 5 н/о 9/0 2000 м
[Ac As]
+11.5 +3.6 58 +9 +9 1007.5 986.7
03 17.09 ЮЗ 7 20 км в посл. час дождь 10/10 1000 м
[Sc]
+11.6 +4.0 60 +9 +9 1006.5 985.7
06 17.09 ЮЗ 6 20 км {дождь} 9/9 1000 м
[Sc]
+14.0 +1.5 43 +12 +12 1006.0 985.4 +10.2 0.0
12 17.09 З 6
{15}
20 км 8/4 1500 м
[Cu med, cong Ac trans Ci]
+19.9 +1.9 30 +20 +20 1004.9 984.7
15 17.09 ЮЗ 6 н/о 9/0 2000 м
[Ac lent]
+18.5 +3.4 37 +18 +18 1005.7 985.4 +21.4
18 17.09 ЮЗ 6 н/о 10/10 1500 м
[Sc]
+18.2 +3.2 37 +18 +18 1006.2 985.9 +21.4
21 17.09 ЮЗ 3 н/о 10/10 1000 м
[Sc]
+16.3 +1.5 37 +16 +16 1006.0 985.5
00 18.09 ЮВ 2 н/о 8/8 1000 м
[Sc]
+13.2 +5.8 61 +13 +13 1004.6 984.0
03 18.09 Ю 4 20 км 8/8 1000 м
[Sc]
+14.4 +3.0 46 +13 +13 1003.5 982.9
06 18.09 ЮЗ 7 20 км 9/9 1500 м
[Sc]
+20.2 +4.0 34 +20 +20 1002.9 982.7 +13.0
09 18.09 З 5 20 км {ливн. осадки} 10/10 300 м
[Cb cap]
+17.3 +12.6 74 +17 +17 1002.6 982.4
12 18.09 ЮЗ 7 20 км {ливн. осадки} 9/9 1000 м
[Sc diur, vesp]
+16.2 +12.2 77 +15 +15 1002.5 982.3
15 18.09 штиль 0 н/о дымка {ливн. осадки} 6/6 300 м
[Cb cap]
+13.0 +11.9 93 +12 +12 1004.3 983.7 +20.6
18 18.09 З 1 н/о дымка {ливн. осадки} 3/3 600 м
[Sc]
+11.0 +9.8 92 +11 +11 1005.7 984.9 +20.6 7
21 18.09 З 2 н/о дымка ясно +9.2 +7.6 90 +7 +7 1006.1 985.2
03 19.09 Ю 4 4000 м дымка 8/8 600 м
[Sc]
+8.6 +7.3 92 +5 +5 1002.9 982.1
06 19.09 Ю 6 10 км слаб. ливневой дождь 10/10 300 м
[Cb cap]
+12.5 +10.6 88 +10 +10 998.4 977.9 +7.1
09 19.09 ЮЗ 12-18
{21}
10 км слаб. ливневой дождь 10/10 300 м
[Cb cap]
+16.6 +12.4 76 +15 +15 994.9 974.8
12 19.09 ЮЗ 13-18
{22}
20 км {ливн. осадки} 6/6 1500 м
[Cu med, cong]
+16.2 -3.8 25 +14 +14 995.1 974.8
15 19.09 ЮЗ 12-21
{23}
н/о 9/9 1000 м
[Cu med, cong]
+12.5 -0.7 40 +9 +9 997.0 976.4 +17.0
18 19.09 З 9-15
{22}
н/о 3/3 1000 м
[Sc diur, vesp]
+9.8 +2.5 60 +6 +6 1001.6 980.8 +17.0 1
00 20.09 З 3 н/о ясно +7.0 +3.4 78 +4 +4 1009.3 988.1
03 20.09 ЮЗ 4 20 км ясно +6.8 +3.2 78 +3 +4 1011.0 989.8
06 20.09 З 6 20 км 8/8 1000 м
[Sc]
+12.0 +4.0 58 +10 +10 1012.3 991.4 +6.7
09 20.09 ЮЗ 8 20 км 9/9 1000 м
[Cb cap]
+14.2 +1.3 41 +12 +12 1012.8 992.1
12 20.09 З 6 20 км 6/6 1000 м
[Cu med, cong]
+14.4 +1.5 42 +13 +13 1013.4 992.6
18 20.09 штиль 0 н/о ясно +4.8 +2.1 83 +4 +4 1016.6 995.2 +16.0
00 21.09 штиль 0 н/о дымка 3/3 600 м
[Sc]
+1.3 +0.5 94 0 0 1018.1 996.3
03 21.09 штиль 0 4000 м дымка 6/0
[Ci]
+0.8 -0.0 94 -1 0 1018.3 996.4
06 21.09 Ю 2 20 км 8/0
[Ci]
+10.0 +3.4 64 +9 +14 1017.1 996.0 +0.2
09 21.09 ЮЗ 2 10 км слаб. ливневой дождь 10/10 300 м
[Cb cap]
+9.2 +6.7 84 +7 +7 1016.0 994.9
12 21.09 В 2 10 км слаб. ливневой дождь 10/10 300 м
[Cb cap]
+8.0 +6.7 91 +6 +6 1013.5 992.3
15 21.09 В 4 н/о слаб. ливневой дождь 10/10 300 м
[Cb cap]
+7.0 +5.9 93 +3 +3 1009.1 987.9 +10.4
18 21.09 В 5 н/о ливневой дождь 10/10 300 м
[Cb cap]
+7.0 +6.5 97 +3 +3 1003.7 982.6 +10.4 4
21 21.09 С 4 н/о слаб. ливневой дождь 10/10 300 м
[Cb cap]
+6.0 +5.3 95 +2 +2 999.4 978.3
00 22.09 С 3 н/о дымка {ливн. осадки} 10/0 2000 м
[Ac und]
+6.8 +5.0 88 +4 +4 995.7 974.8
03 22.09 СЗ 3 4000 м дымка 10/8 600 м
[Sc Ac und]
+6.7 +6.0 95 +3 +3 995.9 975.0
06 22.09 З 4 10 км слаб. ливневой дождь 10/10 300 м
[Cb cap]
+6.7 +5.3 91 +3 +3 997.6 976.7 +5.9 14
12 22.09 З 4 20 км {ливн. осадки} 6/6 600 м
[Cu med, cong]
+9.1 +4.6 73 +6 +7 999.9 979.1
15 22.09 СЗ 2 н/о 4/4 600 м
[Cu med, cong]
+8.2 +4.3 76 +6 +6 1002.4 981.4 +11.4
18 22.09 З 1 н/о ясно +2.8 +0.1 82 +1 +1 1004.3 982.8 +11.4 0.6
21 22.09 штиль 0 н/о ясно +0.4 -2.3 82 -1 -1 1004.7 983.0
00 23.09 Ю 3 н/о ясно +1.6 -1.5 80 -3 -3 1003.3 981.9
03 23.09 Ю 6 10 км слаб. дождь 10/10 600 м
[Sc]
+3.2 +2.4 94 -3 -3 1000.0 978.7
06 23.09 Ю 10-15
{16}
10 км слаб. дождь 10/0 600 м
[As op]
+6.5 +5.1 91 +1 +1 993.6 972.6 +0.3 0.3
09 23.09 ЮЗ 12-18
{21}
20 км в посл. час дождь 8/8 1000 м
[Cb cap]
+10.2 0.0 49 +6 +6 992.7 972.1
12 23.09 ЮЗ 11-16
{22}
20 км {дождь} 6/6 1000 м
[Cu med, cong]
+8.9 -2.2 46 +4 +4 994.0 973.1
15 23.09 ЮЗ 8
{16}
н/о 3/0 2000 м
[Ac lent]
+6.0 -1.2 60 +1 +1 995.5 974.5 +10.9

 

Местоположение метеостанции Карабалык (Костанайская область, Казахстан): широта 53.78 долгота 62.10 высота над уровнем моря 187 м.

В архиве по умолчанию представлена погода в Карабалыке за последнюю неделю. Архивные данные за месяц целиком и за предыдущие месяцы, начиная с января 2011 года, Вы можете получить, выбрав интересующий диапазон дат из раскрывающегося списка и нажав кнопку "Ввод!".


*Определитесь, кто Вы:
робот инопланетянин человек

Внимание! Время в таблицах - всемирное. Для получения местного времени необходимо прибавить поправку, которая равна 5 ч.

Смотрите также архив погоды в соседних городах и на ближайших метеорологических станциях:

Погода в Михайловке (Костанайская область, Казахстан) (35 км)
Погода в Троицке (Челябинская область, Россия) (46 км)
Погода в Октябрьском (Челябинская область, Россия) (81 км)
Погода в Южноуральске (Челябинская область, Россия) (87 км)
Погода в Рудном (Костанайская область, Казахстан) (113 км)
Погода в Костанае (Костанайская область, Казахстан) (118 км)
Погода в Костанае 2 (Костанайская область, Казахстан) (118 км)
Погода в Карталы (Челябинская область, Россия) (125 км)
Погода в Тоболе (Костанайская область, Казахстан) (127 км)
Погода в Целинном (Курганская область, Россия) (130 км)

Пояснения к столбцам:

Ветер - указаны скорость ветра в м/с - средняя за 10 мин, порывы в срок и между сроками (в фигурных скобках) и направление, откуда дует ветер: С - северный, СВ - северо-восточный, В - восточный, ЮВ - юго-восточный, Ю - южный, ЮЗ - юго-западный, З - западный, СЗ - северо-западный.
Видимость - горизонтальная дальность видимости в метрах или километрах. При видимости от 1 до 10 км при отсутствии осадков обычно наблюдается дымка, при ухудшении видимости до 1 км и менее - туман. В сухую погоду видимость может ухудшаться дымом, пылью или мглою.
Явления - указаны атмосферные явления, наблюдавшиеся в срок или в последний час перед сроком; фигурными скобками обозначены явления, наблюдавшиеся между сроками (за 1-3 часа до срока); квадратными скобками обозначены град или гололедные отложения с указанием их диаметра в мм.
Облачность - указаны через наклонную черту общая и нижняя облачность в баллах и высота нижней границы облаков в метрах; квадратными скобками обозначены формы облаков: Ci - перистые, Cs - перисто-слоистые, Cc - перисто-кучевые, Ac - высококучевые, As - высокослоистые, Sc - слоисто-кучевые, Ns - слоисто-дождевые, Cu - кучевые, Cb - кучево-дождевые. Подробнее классификацию облаков см. в Атласе облаков (PDF).
T - Температура воздуха - температура, измеренная на высоте 2 м над землей.
Td - Температура точки росы - температура, при понижении до которой содержащийся в воздухе водяной пар достигнет насыщения.
f - Относительная влажность воздуха - влажноcть воздуха, измеренная на высоте 2 м над землей.
Te - Эффективная температура - температура, которую ощущает одетый по сезону человек в тени. Характеристика душности погоды. При расчете учитывается влияние влажности воздуха и скорости ветра на теплоощущения человека.
Tes - Эффективная температура на солнце - температура, которую ощущает человек, с поправкой на солнечный нагрев. Характеристика знойности погоды. Зависит от высоты солнца над горизонтом, облачности и скорости ветра. Ночью, в пасмурную погоду, а также при ветре 12 м/с и более поправка равна нулю.
P - Атмосферное давление - приведенное к уровню моря атмосферное давление.
Po - Атмосферное давление - измеренное на уровне метеостанции атмосферное давление.
Tmin - Минимальная температура - минимум температуры воздуха на высоте 2 м над землей.
Tmax - Максимальная температура - максимум температуры воздуха на высоте 2 м над землей.
R - Количество осадков - Количество выпавших осадков за период времени, мм. При наведении курсора мыши на число - период времени, за который выпало указанное количество осадков.
R24 - Количество осадков - Количество выпавших осадков за 24 часа, мм.
S - Снежный покров - Высота снежного покрова, см. При наведении курсора мыши на число - состояние снежного покрова и степень покрытия местности в баллах.